Time,TemperatureF,DewpointF,PressureIn,WindDirection,WindDirectionDegrees,WindSpeedMPH,WindSpeedGustMPH,Humidity,HourlyPrecipIn,Conditions,Clouds,dailyrainin,SoftwareType,DateUTC
2013-06-16 00:00:00,60.5,-99.9,29.96,SW,226,1.8,3.6,-999,0.00,,,0.00,homebrew,2013-06-16 07:00:00,
2013-06-16 00:05:00,60.3,-99.9,29.96,SW,230,1.5,3.4,-999,0.00,,,0.00,homebrew,2013-06-16 07:05:00,
2013-06-16 00:10:00,60.3,-99.9,29.96,SW,218,1.4,3.1,-999,0.00,,,0.00,homebrew,2013-06-16 07:10:00,
2013-06-16 00:15:00,60.4,-99.9,29.96,SW,223,1.6,3.9,-999,0.00,,,0.00,homebrew,2013-06-16 07:15:00,
2013-06-16 00:20:00,60.5,-99.9,29.96,SW,225,1.3,3.0,-999,0.00,,,0.00,homebrew,2013-06-16 07:20:00,
2013-06-16 00:25:00,60.5,-99.9,29.96,SW,225,1.5,3.0,-999,0.00,,,0.00,homebrew,2013-06-16 07:25:00,
2013-06-16 00:30:00,60.7,-99.9,29.96,SSW,213,0.2,2.1,-999,0.00,,,0.00,homebrew,2013-06-16 07:30:00,
2013-06-16 00:35:00,60.5,-99.9,29.96,SSW,208,1.3,3.5,-999,0.00,,,0.00,homebrew,2013-06-16 07:35:00,
2013-06-16 00:40:00,60.5,-99.9,29.96,SW,236,1.9,5.0,-999,0.00,,,0.00,homebrew,2013-06-16 07:40:00,
2013-06-16 00:45:00,60.5,-99.9,29.96,SW,227,1.7,3.5,-999,0.00,,,0.00,homebrew,2013-06-16 07:45:00,
2013-06-16 00:50:00,60.4,-99.9,29.96,SW,221,1.4,4.2,-999,0.00,,,0.00,homebrew,2013-06-16 07:50:00,
2013-06-16 01:00:00,60.1,-99.9,29.96,SW,219,0.5,2.1,-999,0.00,,,0.00,homebrew,2013-06-16 08:00:00,
2013-06-16 01:05:00,59.8,-99.9,29.96,SSW,213,0.5,2.1,-999,0.00,,,0.00,homebrew,2013-06-16 08:05:00,
2013-06-16 01:10:00,59.6,-99.9,29.96,SW,227,1.2,2.2,-999,0.00,,,0.00,homebrew,2013-06-16 08:10:00,
2013-06-16 01:15:00,59.5,-99.9,29.96,SSW,205,0.1,0.9,-999,0.00,,,0.00,homebrew,2013-06-16 08:15:00,
2013-06-16 01:20:00,59.4,-99.9,29.96,SW,229,1.3,3.4,-999,0.00,,,0.00,homebrew,2013-06-16 08:20:00,
2013-06-16 01:30:00,59.1,-99.9,29.96,SW,236,2.0,4.0,-999,0.00,,,0.00,homebrew,2013-06-16 08:30:00,
2013-06-16 01:35:00,59.0,-99.9,29.96,SW,232,2.1,3.4,-999,0.00,,,0.00,homebrew,2013-06-16 08:35:00,
2013-06-16 01:40:00,59.0,-99.9,29.97,SW,230,2.7,5.0,-999,0.00,,,0.00,homebrew,2013-06-16 08:40:00,
2013-06-16 01:50:00,59.0,-99.9,29.97,SSW,210,1.7,4.0,-999,0.00,,,0.00,homebrew,2013-06-16 08:50:00,
2013-06-16 01:55:00,59.2,-99.9,29.97,SW,216,2.1,5.3,-999,0.00,,,0.00,homebrew,2013-06-16 08:55:00,
2013-06-16 02:05:00,59.0,-99.9,29.97,SSW,202,0.9,4.3,-999,0.00,,,0.00,homebrew,2013-06-16 09:05:00,
2013-06-16 02:10:00,58.9,-99.9,29.97,South,172,0.8,4.7,-999,0.00,,,0.00,homebrew,2013-06-16 09:10:00,
2013-06-16 02:20:00,59.0,-99.9,29.97,South,179,1.1,7.4,-999,0.00,,,0.00,homebrew,2013-06-16 09:20:00,
2013-06-16 02:25:00,59.0,-99.9,29.97,SSW,202,1.3,4.3,-999,0.00,,,0.00,homebrew,2013-06-16 09:25:00,
2013-06-16 02:30:00,59.0,-99.9,29.98,SSW,198,1.6,5.0,-999,0.00,,,0.00,homebrew,2013-06-16 09:30:00,
2013-06-16 02:35:00,59.1,-99.9,29.98,SSW,213,2.6,6.0,-999,0.00,,,0.00,homebrew,2013-06-16 09:35:00,
2013-06-16 02:40:00,59.1,-99.9,29.98,SW,215,2.7,6.6,-999,0.00,,,0.00,homebrew,2013-06-16 09:40:00,
2013-06-16 02:45:00,59.0,-99.9,29.98,SSW,213,2.8,9.4,-999,0.00,,,0.00,homebrew,2013-06-16 09:45:00,
2013-06-16 02:55:00,58.7,-99.9,29.98,SSW,207,2.7,6.1,-999,0.00,,,0.00,homebrew,2013-06-16 09:55:00,
2013-06-16 03:00:00,58.5,-99.9,29.98,SSW,195,1.1,7.0,-999,0.00,,,0.00,homebrew,2013-06-16 10:00:00,
2013-06-16 03:05:00,58.2,-99.9,29.99,SSW,198,0.8,4.0,-999,0.00,,,0.00,homebrew,2013-06-16 10:05:00,
2013-06-16 03:10:00,58.0,-99.9,29.99,SW,214,1.5,5.6,-999,0.00,,,0.00,homebrew,2013-06-16 10:10:00,
2013-06-16 03:15:00,57.9,-99.9,29.99,SW,217,2.1,5.2,-999,0.00,,,0.00,homebrew,2013-06-16 10:15:00,
2013-06-16 03:20:00,57.7,-99.9,29.99,SSW,212,2.9,8.5,-999,0.00,,,0.00,homebrew,2013-06-16 10:20:00,
2013-06-16 03:25:00,57.7,-99.9,29.99,SW,216,2.2,6.5,-999,0.00,,,0.00,homebrew,2013-06-16 10:25:00,
2013-06-16 03:30:00,57.6,-99.9,29.99,SSW,210,1.8,5.5,-999,0.00,,,0.00,homebrew,2013-06-16 10:30:00,
2013-06-16 03:35:00,57.4,-99.9,29.99,SW,225,2.6,6.3,-999,0.00,,,0.00,homebrew,2013-06-16 10:35:00,
2013-06-16 03:45:00,57.1,-99.9,29.99,SW,231,3.4,7.5,-999,0.00,,,0.00,homebrew,2013-06-16 10:45:00,
2013-06-16 03:50:00,57.1,-99.9,29.99,SSW,210,2.0,6.0,-999,0.00,,,0.00,homebrew,2013-06-16 10:50:00,
2013-06-16 04:00:00,56.9,-99.9,29.99,SSW,205,1.9,4.9,-999,0.00,,,0.00,homebrew,2013-06-16 11:00:00,
2013-06-16 04:05:00,56.7,-99.9,29.99,SSW,204,1.7,4.8,-999,0.00,,,0.00,homebrew,2013-06-16 11:05:00,
2013-06-16 04:10:00,56.6,-99.9,29.99,South,188,1.2,3.7,-999,0.00,,,0.00,homebrew,2013-06-16 11:10:00,
2013-06-16 04:15:00,56.5,-99.9,29.99,SSW,211,1.2,3.9,-999,0.00,,,0.00,homebrew,2013-06-16 11:15:00,
2013-06-16 04:20:00,56.3,-99.9,29.99,SW,229,1.8,4.6,-999,0.00,,,0.00,homebrew,2013-06-16 11:20:00,
2013-06-16 04:25:00,56.2,-99.9,29.99,WSW,241,2.2,4.6,-999,0.00,,,0.00,homebrew,2013-06-16 11:25:00,
2013-06-16 04:35:00,56.0,-99.9,29.99,SW,220,2.0,4.4,-999,0.00,,,0.00,homebrew,2013-06-16 11:35:00,
2013-06-16 04:40:00,55.9,-99.9,29.99,SSW,213,1.7,4.3,-999,0.00,,,0.00,homebrew,2013-06-16 11:40:00,
2013-06-16 04:50:00,55.7,-99.9,30.00,South,181,0.6,2.6,-999,0.00,,,0.00,homebrew,2013-06-16 11:50:00,
2013-06-16 04:55:00,55.6,-99.9,30.00,South,189,2.1,5.5,-999,0.00,,,0.00,homebrew,2013-06-16 11:55:00,
2013-06-16 05:00:00,55.5,-99.9,30.00,SSW,194,1.2,4.5,-999,0.00,,,0.00,homebrew,2013-06-16 12:00:00,
2013-06-16 05:05:00,55.5,-99.9,30.00,South,179,0.8,5.7,-999,0.00,,,0.00,homebrew,2013-06-16 12:05:00,
2013-06-16 05:10:00,55.5,-99.9,30.00,SSW,198,1.7,5.8,-999,0.00,,,0.00,homebrew,2013-06-16 12:10:00,
2013-06-16 05:15:00,55.4,-99.9,30.00,South,169,0.8,2.9,-999,0.00,,,0.00,homebrew,2013-06-16 12:15:00,
2013-06-16 05:20:00,55.3,-99.9,30.00,South,173,0.4,3.8,-999,0.00,,,0.00,homebrew,2013-06-16 12:20:00,
2013-06-16 05:25:00,55.3,-99.9,30.01,SSW,204,0.8,5.8,-999,0.00,,,0.00,homebrew,2013-06-16 12:25:00,
2013-06-16 05:30:00,55.3,-99.9,30.01,SSW,205,0.6,4.8,-999,0.00,,,0.00,homebrew,2013-06-16 12:30:00,
2013-06-16 05:40:00,55.3,-99.9,30.01,SSW,202,0.5,4.9,-999,0.00,,,0.00,homebrew,2013-06-16 12:40:00,
2013-06-16 05:45:00,55.4,-99.9,30.01,South,177,1.2,7.2,-999,0.00,,,0.00,homebrew,2013-06-16 12:45:00,
2013-06-16 05:55:00,55.8,-99.9,30.01,South,183,0.7,4.5,-999,0.00,,,0.00,homebrew,2013-06-16 12:55:00,
2013-06-16 06:00:00,56.1,-99.9,30.01,South,190,0.8,4.0,-999,0.00,,,0.00,homebrew,2013-06-16 13:00:00,
2013-06-16 06:05:00,56.3,-99.9,30.01,SSW,201,1.5,4.0,-999,0.00,,,0.00,homebrew,2013-06-16 13:05:00,
2013-06-16 06:10:00,56.7,-99.9,30.02,SW,217,2.6,7.9,-999,0.00,,,0.00,homebrew,2013-06-16 13:10:00,
2013-06-16 06:15:00,56.9,-99.9,30.02,SSW,209,2.3,6.1,-999,0.00,,,0.00,homebrew,2013-06-16 13:15:00,
2013-06-16 06:20:00,56.9,-99.9,30.02,South,190,1.5,6.5,-999,0.00,,,0.00,homebrew,2013-06-16 13:20:00,
2013-06-16 06:25:00,56.7,-99.9,30.02,SSW,200,1.6,5.6,-999,0.00,,,0.00,homebrew,2013-06-16 13:25:00,
2013-06-16 06:30:00,56.6,-99.9,30.02,South,173,0.6,4.8,-999,0.00,,,0.00,homebrew,2013-06-16 13:30:00,
2013-06-16 06:35:00,56.4,-99.9,30.02,SSW,200,2.1,5.2,-999,0.00,,,0.00,homebrew,2013-06-16 13:35:00,
2013-06-16 06:45:00,56.6,-99.9,30.02,SSW,212,1.6,4.9,-999,0.00,,,0.00,homebrew,2013-06-16 13:45:00,
2013-06-16 06:50:00,56.8,-99.9,30.02,SW,219,1.7,3.4,-999,0.00,,,0.00,homebrew,2013-06-16 13:50:00,
2013-06-16 07:00:00,57.8,-99.9,30.03,South,174,0.4,2.5,-999,0.00,,,0.00,homebrew,2013-06-16 14:00:00,
2013-06-16 07:05:00,58.7,-99.9,30.03,SSW,194,1.9,6.9,-999,0.00,,,0.00,homebrew,2013-06-16 14:05:00,
2013-06-16 07:10:00,59.3,-99.9,30.03,South,189,1.1,3.5,-999,0.00,,,0.00,homebrew,2013-06-16 14:10:00,
2013-06-16 07:15:00,60.0,-99.9,30.03,SSW,209,1.6,7.4,-999,0.00,,,0.00,homebrew,2013-06-16 14:15:00,
2013-06-16 07:20:00,60.3,-99.9,30.03,SSW,197,1.9,6.5,-999,0.00,,,0.00,homebrew,2013-06-16 14:20:00,
2013-06-16 07:25:00,60.1,-99.9,30.03,SSW,196,1.3,4.5,-999,0.00,,,0.00,homebrew,2013-06-16 14:25:00,
2013-06-16 07:35:00,59.7,-99.9,30.03,SW,220,2.6,8.0,-999,0.00,,,0.00,homebrew,2013-06-16 14:35:00,
2013-06-16 07:40:00,59.5,-99.9,30.03,SW,228,2.7,8.1,-999,0.00,,,0.00,homebrew,2013-06-16 14:40:00,
2013-06-16 07:50:00,61.1,-99.9,30.03,South,188,1.5,3.6,-999,0.00,,,0.00,homebrew,2013-06-16 14:50:00,
2013-06-16 07:55:00,60.6,-99.9,30.03,SSW,206,2.9,7.3,-999,0.00,,,0.00,homebrew,2013-06-16 14:55:00,
2013-06-16 08:00:00,60.9,-99.9,30.03,SW,219,2.6,6.8,-999,0.00,,,0.00,homebrew,2013-06-16 15:00:00,
2013-06-16 08:05:00,61.0,-99.9,30.03,SW,227,3.2,6.2,-999,0.00,,,0.00,homebrew,2013-06-16 15:05:00,
2013-06-16 08:10:00,60.9,-99.9,30.03,SW,228,3.2,7.0,-999,0.00,,,0.00,homebrew,2013-06-16 15:10:00,
2013-06-16 08:15:00,61.0,-99.9,30.03,SW,230,3.9,8.1,-999,0.00,,,0.00,homebrew,2013-06-16 15:15:00,
2013-06-16 08:25:00,61.8,-99.9,30.03,SSW,195,1.3,3.8,-999,0.00,,,0.00,homebrew,2013-06-16 15:25:00,
2013-06-16 08:30:00,61.8,-99.9,30.04,SSW,192,1.5,5.3,-999,0.00,,,0.00,homebrew,2013-06-16 15:30:00,
2013-06-16 08:40:00,62.3,-99.9,30.04,South,186,1.5,4.8,-999,0.00,,,0.00,homebrew,2013-06-16 15:40:00,
2013-06-16 08:45:00,62.1,-99.9,30.04,SW,215,2.5,7.9,-999,0.00,,,0.00,homebrew,2013-06-16 15:45:00,
2013-06-16 08:50:00,62.7,-99.9,30.04,SSW,198,1.9,4.5,-999,0.00,,,0.00,homebrew,2013-06-16 15:50:00,
2013-06-16 08:55:00,62.0,-99.9,30.04,South,185,1.9,6.6,-999,0.00,,,0.00,homebrew,2013-06-16 15:55:00,
2013-06-16 09:00:00,62.0,-99.9,30.04,SW,231,3.0,7.5,-999,0.00,,,0.00,homebrew,2013-06-16 16:00:00,
2013-06-16 09:05:00,61.6,-99.9,30.04,SW,219,3.3,7.9,-999,0.00,,,0.00,homebrew,2013-06-16 16:05:00,
2013-06-16 09:10:00,61.4,-99.9,30.04,SW,223,4.1,10.7,-999,0.00,,,0.00,homebrew,2013-06-16 16:10:00,
2013-06-16 09:15:00,61.5,-99.9,30.04,SW,216,3.5,9.3,-999,0.00,,,0.00,homebrew,2013-06-16 16:15:00,
2013-06-16 09:20:00,61.4,-99.9,30.03,SSW,212,2.8,7.3,-999,0.00,,,0.00,homebrew,2013-06-16 16:20:00,
2013-06-16 09:30:00,61.9,-99.9,30.03,SSW,213,2.6,8.6,-999,0.00,,,0.00,homebrew,2013-06-16 16:30:00,
2013-06-16 09:35:00,62.1,-99.9,30.03,SW,231,3.9,7.1,-999,0.00,,,0.00,homebrew,2013-06-16 16:35:00,
2013-06-16 09:40:00,62.5,-99.9,30.03,SW,221,3.1,7.3,-999,0.00,,,0.00,homebrew,2013-06-16 16:40:00,
2013-06-16 09:45:00,63.2,-99.9,30.03,SW,214,3.1,6.9,-999,0.00,,,0.00,homebrew,2013-06-16 16:45:00,
2013-06-16 09:50:00,64.0,-99.9,30.03,SSW,202,3.2,7.9,-999,0.00,,,0.00,homebrew,2013-06-16 16:50:00,
2013-06-16 09:55:00,63.7,-99.9,30.03,SW,224,4.0,8.5,-999,0.00,,,0.00,homebrew,2013-06-16 16:55:00,
2013-06-16 10:00:00,63.8,-99.9,30.03,SW,220,3.5,9.8,-999,0.00,,,0.00,homebrew,2013-06-16 17:00:00,
2013-06-16 10:05:00,64.2,-99.9,30.03,South,187,2.0,8.1,-999,0.00,,,0.00,homebrew,2013-06-16 17:05:00,
2013-06-16 10:10:00,64.9,-99.9,30.03,SSW,212,4.0,8.6,-999,0.00,,,0.00,homebrew,2013-06-16 17:10:00,
2013-06-16 10:20:00,64.9,-99.9,30.03,WSW,243,3.9,7.5,-999,0.00,,,0.00,homebrew,2013-06-16 17:20:00,
2013-06-16 10:25:00,64.4,-99.9,30.03,SW,229,4.9,11.6,-999,0.00,,,0.00,homebrew,2013-06-16 17:25:00,
2013-06-16 10:30:00,64.1,-99.9,30.03,SSW,210,2.9,10.6,-999,0.00,,,0.00,homebrew,2013-06-16 17:30:00,
2013-06-16 10:35:00,65.2,-99.9,30.03,SSW,213,2.4,6.8,-999,0.00,,,0.00,homebrew,2013-06-16 17:35:00,
2013-06-16 10:40:00,65.9,-99.9,30.03,SSW,207,3.3,8.8,-999,0.00,,,0.00,homebrew,2013-06-16 17:40:00,
2013-06-16 10:45:00,66.3,-99.9,30.03,South,187,2.4,10.0,-999,0.00,,,0.00,homebrew,2013-06-16 17:45:00,
2013-06-16 10:50:00,66.7,-99.9,30.03,SSW,208,4.2,9.6,-999,0.00,,,0.00,homebrew,2013-06-16 17:50:00,
2013-06-16 10:55:00,66.4,-99.9,30.03,SSW,193,1.9,7.0,-999,0.00,,,0.00,homebrew,2013-06-16 17:55:00,
2013-06-16 11:00:00,67.6,-99.9,30.03,SW,216,2.1,6.3,-999,0.00,,,0.00,homebrew,2013-06-16 18:00:00,
2013-06-16 11:10:00,67.4,-99.9,30.03,SSW,212,3.3,7.3,-999,0.00,,,0.00,homebrew,2013-06-16 18:10:00,
2013-06-16 11:15:00,67.2,-99.9,30.03,SSW,206,1.9,8.1,-999,0.00,,,0.00,homebrew,2013-06-16 18:15:00,
2013-06-16 11:20:00,68.3,-99.9,30.03,SW,218,2.8,7.2,-999,0.00,,,0.00,homebrew,2013-06-16 18:20:00,
2013-06-16 11:25:00,67.6,-99.9,30.03,SSW,198,3.0,6.5,-999,0.00,,,0.00,homebrew,2013-06-16 18:25:00,
2013-06-16 11:30:00,67.5,-99.9,30.02,SSW,209,2.8,9.8,-999,0.00,,,0.00,homebrew,2013-06-16 18:30:00,
2013-06-16 11:35:00,68.2,-99.9,30.02,SW,226,3.3,8.2,-999,0.00,,,0.00,homebrew,2013-06-16 18:35:00,
2013-06-16 11:40:00,68.4,-99.9,30.02,SW,216,3.1,7.3,-999,0.00,,,0.00,homebrew,2013-06-16 18:40:00,
2013-06-16 11:45:00,68.4,-99.9,30.03,SW,221,3.3,8.6,-999,0.00,,,0.00,homebrew,2013-06-16 18:45:00,
2013-06-16 11:50:00,67.7,-99.9,30.02,SW,236,3.9,9.0,-999,0.00,,,0.00,homebrew,2013-06-16 18:50:00,
2013-06-16 12:00:00,66.6,-99.9,30.02,SW,217,1.6,5.2,-999,0.00,,,0.00,homebrew,2013-06-16 19:00:00,
2013-06-16 12:05:00,68.5,-99.9,30.02,SSW,204,2.9,5.8,-999,0.00,,,0.00,homebrew,2013-06-16 19:05:00,
2013-06-16 12:15:00,68.5,-99.9,30.02,SW,227,3.1,8.6,-999,0.00,,,0.00,homebrew,2013-06-16 19:15:00,
2013-06-16 12:20:00,68.0,-99.9,30.02,SW,216,3.2,7.3,-999,0.00,,,0.00,homebrew,2013-06-16 19:20:00,
2013-06-16 12:25:00,68.4,-99.9,30.02,South,180,2.4,7.1,-999,0.00,,,0.00,homebrew,2013-06-16 19:25:00,
2013-06-16 12:30:00,68.6,-99.9,30.02,SSW,193,1.8,6.6,-999,0.00,,,0.00,homebrew,2013-06-16 19:30:00,
2013-06-16 12:35:00,69.4,-99.9,30.01,SSW,200,2.2,6.0,-999,0.00,,,0.00,homebrew,2013-06-16 19:35:00,
2013-06-16 12:40:00,69.4,-99.9,30.01,SW,214,2.7,9.6,-999,0.00,,,0.00,homebrew,2013-06-16 19:40:00,
2013-06-16 12:45:00,71.0,-99.9,30.01,SSW,197,1.3,4.1,-999,0.00,,,0.00,homebrew,2013-06-16 19:45:00,
2013-06-16 12:50:00,71.8,-99.9,30.01,SW,216,3.1,8.4,-999,0.00,,,0.00,homebrew,2013-06-16 19:50:00,
2013-06-16 12:55:00,72.0,-99.9,30.01,SW,217,3.1,8.1,-999,0.00,,,0.00,homebrew,2013-06-16 19:55:00,
2013-06-16 13:05:00,70.9,-99.9,30.01,SSW,206,2.0,8.1,-999,0.00,,,0.00,homebrew,2013-06-16 20:05:00,
2013-06-16 13:10:00,72.1,-99.9,30.01,SSW,202,1.9,6.6,-999,0.00,,,0.00,homebrew,2013-06-16 20:10:00,
2013-06-16 13:15:00,71.6,-99.9,30.01,SSW,204,1.9,8.6,-999,0.00,,,0.00,homebrew,2013-06-16 20:15:00,
2013-06-16 13:20:00,70.8,-99.9,30.01,SSW,196,1.8,7.7,-999,0.00,,,0.00,homebrew,2013-06-16 20:20:00,
2013-06-16 13:25:00,70.4,-99.9,30.01,SSW,210,0.5,6.0,-999,0.00,,,0.00,homebrew,2013-06-16 20:25:00,
2013-06-16 13:30:00,71.0,-99.9,30.01,SSW,192,2.1,6.9,-999,0.00,,,0.00,homebrew,2013-06-16 20:30:00,
2013-06-16 13:35:00,71.8,-99.9,30.01,SW,218,3.2,8.6,-999,0.00,,,0.00,homebrew,2013-06-16 20:35:00,
2013-06-16 13:40:00,71.6,-99.9,30.01,SSW,210,2.4,6.7,-999,0.00,,,0.00,homebrew,2013-06-16 20:40:00,
2013-06-16 13:45:00,72.0,-99.9,30.01,South,182,1.7,4.6,-999,0.00,,,0.00,homebrew,2013-06-16 20:45:00,
2013-06-16 13:55:00,74.3,-99.9,30.01,South,187,2.1,8.1,-999,0.00,,,0.00,homebrew,2013-06-16 20:55:00,
2013-06-16 14:00:00,73.8,-99.9,30.01,SW,222,3.4,8.3,-999,0.00,,,0.00,homebrew,2013-06-16 21:00:00,
2013-06-16 14:05:00,73.4,-99.9,30.00,South,189,1.8,7.3,-999,0.00,,,0.00,homebrew,2013-06-16 21:05:00,
2013-06-16 14:10:00,74.6,-99.9,30.00,South,183,2.6,9.9,-999,0.00,,,0.00,homebrew,2013-06-16 21:10:00,
2013-06-16 14:15:00,74.3,-99.9,30.00,SW,214,2.3,7.8,-999,0.00,,,0.00,homebrew,2013-06-16 21:15:00,
2013-06-16 14:20:00,74.5,-99.9,30.00,SW,227,2.6,6.8,-999,0.00,,,0.00,homebrew,2013-06-16 21:20:00,
2013-06-16 14:25:00,74.5,-99.9,30.00,South,190,2.1,7.1,-999,0.00,,,0.00,homebrew,2013-06-16 21:25:00,
2013-06-16 14:30:00,75.2,-99.9,30.00,SSW,209,2.5,5.7,-999,0.00,,,0.00,homebrew,2013-06-16 21:30:00,
2013-06-16 14:35:00,75.0,-99.9,30.00,South,188,1.7,5.5,-999,0.00,,,0.00,homebrew,2013-06-16 21:35:00,
2013-06-16 14:45:00,73.7,-99.9,30.00,SW,223,2.4,6.7,-999,0.00,,,0.00,homebrew,2013-06-16 21:45:00,
2013-06-16 14:50:00,74.6,-99.9,30.00,SSW,204,1.1,5.1,-999,0.00,,,0.00,homebrew,2013-06-16 21:50:00,
2013-06-16 15:00:00,72.0,-99.9,30.00,WSW,239,3.2,9.7,-999,0.00,,,0.00,homebrew,2013-06-16 22:00:00,
2013-06-16 15:05:00,71.8,-99.9,30.00,SSW,194,1.9,4.8,-999,0.00,,,0.00,homebrew,2013-06-16 22:05:00,
2013-06-16 15:10:00,72.2,-99.9,30.00,SSW,199,1.6,7.5,-999,0.00,,,0.00,homebrew,2013-06-16 22:10:00,
2013-06-16 15:15:00,71.7,-99.9,29.99,SSW,204,2.3,6.3,-999,0.00,,,0.00,homebrew,2013-06-16 22:15:00,
2013-06-16 15:20:00,71.9,-99.9,30.00,SW,214,2.5,7.6,-999,0.00,,,0.00,homebrew,2013-06-16 22:20:00,
2013-06-16 15:25:00,72.0,-99.9,29.99,SW,221,2.1,6.2,-999,0.00,,,0.00,homebrew,2013-06-16 22:25:00,
2013-06-16 15:35:00,74.6,-99.9,29.99,SSW,206,2.6,6.5,-999,0.00,,,0.00,homebrew,2013-06-16 22:35:00,
2013-06-16 15:40:00,75.4,-99.9,30.00,SW,222,3.0,7.4,-999,0.00,,,0.00,homebrew,2013-06-16 22:40:00,
2013-06-16 15:50:00,74.5,-99.9,30.00,SW,225,3.7,8.2,-999,0.00,,,0.00,homebrew,2013-06-16 22:50:00,
2013-06-16 15:55:00,75.3,-99.9,29.99,SSW,197,2.3,5.3,-999,0.00,,,0.00,homebrew,2013-06-16 22:55:00,
2013-06-16 16:00:00,75.3,-99.9,30.00,SSW,200,2.7,8.6,-999,0.00,,,0.00,homebrew,2013-06-16 23:00:00,
2013-06-16 16:05:00,74.6,-99.9,30.00,SSW,194,3.9,8.2,-999,0.00,,,0.00,homebrew,2013-06-16 23:05:00,
2013-06-16 16:10:00,73.7,-99.9,30.00,SE,137,0.7,7.5,-999,0.00,,,0.00,homebrew,2013-06-16 23:10:00,
2013-06-16 16:15:00,74.1,-99.9,30.00,SSW,200,3.0,8.1,-999,0.00,,,0.00,homebrew,2013-06-16 23:15:00,
2013-06-16 16:20:00,74.7,-99.9,30.00,SSW,194,2.1,9.6,-999,0.00,,,0.00,homebrew,2013-06-16 23:20:00,
2013-06-16 16:25:00,74.8,-99.9,30.00,SSW,200,2.7,7.0,-999,0.00,,,0.00,homebrew,2013-06-16 23:25:00,
2013-06-16 16:30:00,73.9,-99.9,30.00,SSW,201,2.8,8.9,-999,0.00,,,0.00,homebrew,2013-06-16 23:30:00,
2013-06-16 16:40:00,72.5,-99.9,30.01,SSW,205,2.2,6.8,-999,0.00,,,0.00,homebrew,2013-06-16 23:40:00,
2013-06-16 16:45:00,72.2,-99.9,30.00,SSW,207,1.6,5.8,-999,0.00,,,0.00,homebrew,2013-06-16 23:45:00,
2013-06-16 16:50:00,71.9,-99.9,30.01,SSW,210,2.3,7.8,-999,0.00,,,0.00,homebrew,2013-06-16 23:50:00,
2013-06-16 16:55:00,72.0,-99.9,30.01,SSW,197,2.1,5.3,-999,0.00,,,0.00,homebrew,2013-06-16 23:55:00,
2013-06-16 17:00:00,72.5,-99.9,30.00,SSW,196,2.3,8.3,-999,0.00,,,0.00,homebrew,2013-06-17 00:00:00,
2013-06-16 17:10:00,72.8,-99.9,30.00,SSW,196,1.0,4.0,-999,0.00,,,0.00,homebrew,2013-06-17 00:10:00,
2013-06-16 17:15:00,73.7,-99.9,30.01,SSW,200,2.1,6.5,-999,0.00,,,0.00,homebrew,2013-06-17 00:15:00,
2013-06-16 17:20:00,74.4,-99.9,30.01,SSW,202,2.8,7.3,-999,0.00,,,0.00,homebrew,2013-06-17 00:20:00,
2013-06-16 17:30:00,73.1,-99.9,30.01,SW,215,2.9,8.3,-999,0.00,,,0.00,homebrew,2013-06-17 00:30:00,
2013-06-16 17:35:00,72.5,-99.9,30.00,SSW,204,2.6,10.0,-999,0.00,,,0.00,homebrew,2013-06-17 00:35:00,
2013-06-16 17:45:00,71.4,-99.9,30.01,SW,214,2.4,7.0,-999,0.00,,,0.00,homebrew,2013-06-17 00:45:00,
2013-06-16 17:50:00,71.0,-99.9,30.01,SSW,203,2.4,7.1,-999,0.00,,,0.00,homebrew,2013-06-17 00:50:00,
2013-06-16 17:55:00,70.7,-99.9,30.01,SW,215,2.2,7.3,-999,0.00,,,0.00,homebrew,2013-06-17 00:55:00,
2013-06-16 18:00:00,69.7,-99.9,30.01,SSW,203,1.2,4.8,-999,0.00,,,0.00,homebrew,2013-06-17 01:00:00,
2013-06-16 18:05:00,68.3,-99.9,30.01,SW,234,1.5,6.2,-999,0.00,,,0.00,homebrew,2013-06-17 01:05:00,
2013-06-16 18:10:00,67.7,-99.9,30.01,SW,226,1.6,6.2,-999,0.00,,,0.00,homebrew,2013-06-17 01:10:00,
2013-06-16 18:15:00,67.6,-99.9,30.01,SSW,207,1.4,5.7,-999,0.00,,,0.00,homebrew,2013-06-17 01:15:00,
2013-06-16 18:20:00,67.6,-99.9,30.01,SSW,209,1.6,5.1,-999,0.00,,,0.00,homebrew,2013-06-17 01:20:00,
2013-06-16 18:25:00,67.8,-99.9,30.01,South,186,1.3,5.0,-999,0.00,,,0.00,homebrew,2013-06-17 01:25:00,
2013-06-16 18:35:00,68.4,-99.9,30.01,South,187,1.1,3.5,-999,0.00,,,0.00,homebrew,2013-06-17 01:35:00,
2013-06-16 18:40:00,68.9,-99.9,30.01,SSW,200,2.1,7.3,-999,0.00,,,0.00,homebrew,2013-06-17 01:40:00,
2013-06-16 18:45:00,68.9,-99.9,30.01,SW,214,2.2,5.3,-999,0.00,,,0.00,homebrew,2013-06-17 01:45:00,
2013-06-16 18:50:00,68.8,-99.9,30.01,SSW,209,2.7,10.3,-999,0.00,,,0.00,homebrew,2013-06-17 01:50:00,
2013-06-16 18:55:00,68.9,-99.9,30.01,SSW,202,1.9,5.1,-999,0.00,,,0.00,homebrew,2013-06-17 01:55:00,
2013-06-16 19:00:00,69.1,-99.9,30.01,SSW,212,2.9,7.6,-999,0.00,,,0.00,homebrew,2013-06-17 02:00:00,
2013-06-16 19:05:00,69.1,-99.9,30.01,SSW,202,2.8,8.9,-999,0.00,,,0.00,homebrew,2013-06-17 02:05:00,
2013-06-16 19:10:00,69.1,-99.9,30.01,SW,216,3.7,12.1,-999,0.00,,,0.00,homebrew,2013-06-17 02:10:00,
2013-06-16 19:15:00,68.7,-99.9,30.01,SW,225,3.5,11.1,-999,0.00,,,0.00,homebrew,2013-06-17 02:15:00,
2013-06-16 19:25:00,68.4,-99.9,30.02,SSW,205,1.5,5.3,-999,0.00,,,0.00,homebrew,2013-06-17 02:25:00,
2013-06-16 19:30:00,68.2,-99.9,30.02,South,188,1.7,7.6,-999,0.00,,,0.00,homebrew,2013-06-17 02:30:00,
2013-06-16 19:40:00,68.3,-99.9,30.02,SSW,199,1.8,6.5,-999,0.00,,,0.00,homebrew,2013-06-17 02:40:00,
2013-06-16 19:45:00,68.3,-99.9,30.02,SSW,204,2.2,6.7,-999,0.00,,,0.00,homebrew,2013-06-17 02:45:00,
2013-06-16 19:50:00,68.1,-99.9,30.02,SSW,195,2.1,5.5,-999,0.00,,,0.00,homebrew,2013-06-17 02:50:00,
2013-06-16 19:55:00,67.9,-99.9,30.02,South,186,1.1,4.3,-999,0.00,,,0.00,homebrew,2013-06-17 02:55:00,
2013-06-16 20:00:00,67.7,-99.9,30.02,South,180,0.7,3.4,-999,0.00,,,0.00,homebrew,2013-06-17 03:00:00,
2013-06-16 20:05:00,67.2,-99.9,30.02,SW,233,1.4,4.2,-999,0.00,,,0.00,homebrew,2013-06-17 03:05:00,
2013-06-16 20:10:00,67.1,-99.9,30.01,SW,214,2.6,7.0,-999,0.00,,,0.00,homebrew,2013-06-17 03:10:00,
2013-06-16 20:15:00,66.9,-99.9,30.02,SSW,208,1.0,4.0,-999,0.00,,,0.00,homebrew,2013-06-17 03:15:00,
2013-06-16 20:20:00,66.7,-99.9,30.02,SSW,207,0.9,3.5,-999,0.00,,,0.00,homebrew,2013-06-17 03:20:00,
2013-06-16 20:30:00,66.3,-99.9,30.02,SSW,206,2.5,7.4,-999,0.00,,,0.00,homebrew,2013-06-17 03:30:00,
2013-06-16 20:35:00,66.3,-99.9,30.02,SW,216,0.8,4.8,-999,0.00,,,0.00,homebrew,2013-06-17 03:35:00,
2013-06-16 20:40:00,66.0,-99.9,30.02,SW,222,0.9,2.2,-999,0.00,,,0.00,homebrew,2013-06-17 03:40:00,
2013-06-16 20:45:00,65.8,-99.9,30.03,SW,220,1.7,4.1,-999,0.00,,,0.00,homebrew,2013-06-17 03:45:00,
2013-06-16 20:50:00,65.6,-99.9,30.03,SSW,210,1.2,5.3,-999,0.00,,,0.00,homebrew,2013-06-17 03:50:00,
2013-06-16 20:55:00,65.3,-99.9,30.02,SSW,209,0.4,4.4,-999,0.00,,,0.00,homebrew,2013-06-17 03:55:00,
2013-06-16 21:00:00,65.2,-99.9,30.03,WSW,256,0.0,0.8,-999,0.00,,,0.00,homebrew,2013-06-17 04:00:00,
2013-06-16 21:05:00,65.0,-99.9,30.03,WSW,258,0.0,0.0,-999,0.00,,,0.00,homebrew,2013-06-17 04:05:00,
2013-06-16 21:10:00,64.7,-99.9,30.03,WSW,258,0.0,0.0,-999,0.00,,,0.00,homebrew,2013-06-17 04:10:00,
2013-06-16 21:20:00,63.8,-99.9,30.03,WSW,258,0.0,0.0,-999,0.00,,,0.00,homebrew,2013-06-17 04:20:00,
2013-06-16 21:25:00,63.5,-99.9,30.04,WSW,238,0.2,1.8,-999,0.00,,,0.00,homebrew,2013-06-17 04:25:00,
2013-06-16 21:35:00,63.1,-99.9,30.04,SSW,208,0.0,0.0,-999,0.00,,,0.00,homebrew,2013-06-17 04:35:00,
2013-06-16 21:40:00,62.7,-99.9,30.04,SSW,208,0.0,0.0,-999,0.00,,,0.00,homebrew,2013-06-17 04:40:00,
2013-06-16 21:45:00,62.6,-99.9,30.04,SSW,208,0.0,0.0,-999,0.00,,,0.00,homebrew,2013-06-17 04:45:00,
2013-06-16 21:50:00,62.5,-99.9,30.04,SSW,208,0.0,0.0,-999,0.00,,,0.00,homebrew,2013-06-17 04:50:00,
2013-06-16 21:55:00,62.2,-99.9,30.04,SSW,208,0.0,0.0,-999,0.00,,,0.00,homebrew,2013-06-17 04:55:00,
2013-06-16 22:00:00,62.0,-99.9,30.04,SSW,208,0.0,0.0,-999,0.00,,,0.00,homebrew,2013-06-17 05:00:00,
2013-06-16 22:05:00,62.1,-99.9,30.04,SSW,209,0.3,2.7,-999,0.00,,,0.00,homebrew,2013-06-17 05:05:00,
2013-06-16 22:10:00,62.1,-99.9,30.04,SSW,204,0.4,3.2,-999,0.00,,,0.00,homebrew,2013-06-17 05:10:00,
2013-06-16 22:15:00,61.9,-99.9,30.04,SSW,198,0.5,2.6,-999,0.00,,,0.00,homebrew,2013-06-17 05:15:00,
2013-06-16 22:25:00,61.7,-99.9,30.04,SSW,203,1.3,3.9,-999,0.00,,,0.00,homebrew,2013-06-17 05:25:00,
2013-06-16 22:30:00,61.6,-99.9,30.05,South,174,0.0,0.0,-999,0.00,,,0.00,homebrew,2013-06-17 05:30:00,
2013-06-16 22:40:00,60.9,-99.9,30.04,South,174,0.0,0.0,-999,0.00,,,0.00,homebrew,2013-06-17 05:40:00,
2013-06-16 22:45:00,60.6,-99.9,30.05,South,174,0.0,0.0,-999,0.00,,,0.00,homebrew,2013-06-17 05:45:00,
2013-06-16 22:50:00,60.5,-99.9,30.05,SSE,148,0.4,2.5,-999,0.00,,,0.00,homebrew,2013-06-17 05:50:00,
2013-06-16 22:55:00,60.5,-99.9,30.05,South,181,1.1,4.8,-999,0.00,,,0.00,homebrew,2013-06-17 05:55:00,
2013-06-16 23:00:00,60.4,-99.9,30.05,SSE,154,0.5,2.7,-999,0.00,,,0.00,homebrew,2013-06-17 06:00:00,
2013-06-16 23:05:00,60.4,-99.9,30.05,SSW,203,2.0,3.8,-999,0.00,,,0.00,homebrew,2013-06-17 06:05:00,
2013-06-16 23:10:00,60.4,-99.9,30.05,South,186,0.9,5.2,-999,0.00,,,0.00,homebrew,2013-06-17 06:10:00,
2013-06-16 23:15:00,60.5,-99.9,30.05,South,188,1.4,5.3,-999,0.00,,,0.00,homebrew,2013-06-17 06:15:00,
2013-06-16 23:20:00,60.5,-99.9,30.05,SSW,213,1.9,4.8,-999,0.00,,,0.00,homebrew,2013-06-17 06:20:00,
2013-06-16 23:30:00,60.3,-99.9,30.06,SSW,195,0.0,1.5,-999,0.00,,,0.00,homebrew,2013-06-17 06:30:00,
2013-06-16 23:35:00,59.9,-99.9,30.06,SSE,166,0.5,2.3,-999,0.00,,,0.00,homebrew,2013-06-17 06:35:00,
2013-06-16 23:40:00,59.5,-99.9,30.06,SSE,162,0.4,3.0,-999,0.00,,,0.00,homebrew,2013-06-17 06:40:00,
2013-06-16 23:45:00,59.2,-99.9,30.06,SW,221,1.5,4.2,-999,0.00,,,0.00,homebrew,2013-06-17 06:45:00,
2013-06-16 23:50:00,59.1,-99.9,30.06,SSW,205,1.3,5.7,-999,0.00,,,0.00,homebrew,2013-06-17 06:50:00,
2013-06-16 23:55:00,59.1,-99.9,30.06,South,180,0.9,5.5,-999,0.00,,,0.00,homebrew,2013-06-17 06:55:00,